This is the latest recevied weather packets stored in our database for station/object KN6CW-3. If no packets are shown the sender has not sent any weather packets the latest 10 day(s).
| Time | Temp. | Humidity | Pressure | Rain* | Wind** | Luminosity | Snow |
|---|---|---|---|---|---|---|---|
| 1778070328 | 14.44° C | 90% | 1007.1 hPa | 0 mm | - | 42 W/m² | - |
| 1778070027 | 14.44° C | 90% | 1007 hPa | 0 mm | - | 53 W/m² | - |
| 1778069727 | 14.44° C | 90% | 1006.9 hPa | 0 mm | - | 72 W/m² | - |
| 1778069427 | 14.44° C | 90% | 1006.9 hPa | 0 mm | - | 54 W/m² | - |
| 1778069126 | 14.44° C | 90% | 1006.8 hPa | 0 mm | - | 42 W/m² | - |
| 1778068826 | 14.44° C | 90% | 1007 hPa | 0 mm | - | 37 W/m² | - |
| 1778068526 | 14.44° C | 90% | 1006.9 hPa | 0 mm | - | 70 W/m² | - |
| 1778068226 | 14.44° C | 89% | 1006.8 hPa | 0 mm | - | 81 W/m² | - |
| 1778067925 | 14.44° C | 89% | 1006.8 hPa | 0 mm | - | 77 W/m² | - |
| 1778067625 | 14.44° C | 88% | 1006.9 hPa | 0 mm | - | 40 W/m² | - |
| 1778067325 | 14.44° C | 87% | 1006.9 hPa | 0 mm | - | 56 W/m² | - |
| 1778067024 | 15° C | 86% | 1007 hPa | 0 mm | - | 28 W/m² | - |
| 1778066724 | 15° C | 85% | 1007 hPa | 0 mm | - | 30 W/m² | - |
| 1778066424 | 15° C | 85% | 1007 hPa | 0 mm | - | 26 W/m² | - |
| 1778066123 | 15° C | 83% | 1006.9 hPa | 0 mm | - | 23 W/m² | - |
| 1778065823 | 15.56° C | 82% | 1006.9 hPa | 0 mm | - | 21 W/m² | - |
| 1778065523 | 15.56° C | 81% | 1006.8 hPa | 0 mm | - | 16 W/m² | - |
| 1778065223 | 15.56° C | 81% | 1006.6 hPa | 0 mm | - | 21 W/m² | - |
| 1778064923 | 15.56° C | 80% | 1006.8 hPa | 0 mm | - | 32 W/m² | - |
| 1778064622 | 15.56° C | 80% | 1006.7 hPa | 0 mm | - | 44 W/m² | - |
| 1778064322 | 15.56° C | 80% | 1006.5 hPa | 0 mm | - | 47 W/m² | - |
| 1778064021 | 15.56° C | 80% | 1006.2 hPa | 0 mm | - | 49 W/m² | - |
| 1778063721 | 15.56° C | 80% | 1006.4 hPa | 0 mm | - | 39 W/m² | - |
| 1778063421 | 15.56° C | 80% | 1006.3 hPa | 0 mm | - | 35 W/m² | - |
| 1778063120 | 15.56° C | 79% | 1006.3 hPa | 0 mm | - | 35 W/m² | - |
* Rain latest hour (hover to see other rain measurements)
** Current wind speed in m/s (hover to see current wind gust speed)